Theta_e
318 318 319 319 319 319 320 320 320 321 320 321 320 320 320 321 321 321 322 323 324 324 325 323 322 324 324 325 328 331 341 351 352 356 359 357 357 356 354 352 353 350 354 354
320 319 319 319 319 319 319 319 320 320 321 320 320 320 320 320 321 322 322 324 324 324 324 325 324 323 323 325 327 331 333 341 349 355 354 355 356 354 355 353 351 351 351 354
319 320 319 318 319 319 319 319 319 320 319 320 319 319 320 320 322 322 322 323 324 325 325 327 327 326 324 323 326 326 329 333 337 345 351 352 352 354 353 353 353 351 351 352
320 320 319 317 317 317 318 318 317 317 318 319 320 319 323 322 322 322 322 323 323 324 325 325 326 326 323 321 321 324 327 329 331 335 339 344 350 352 351 352 353 353 351 350
319 319 318 318 318 317 317 317 318 318 318 319 319 319 320 322 321 323 324 323 323 323 323 324 324 324 323 322 322 322 322 327 329 330 333 337 342 344 348 351 349 351 352 351
318 318 318 318 318 317 317 317 318 319 319 321 320 320 321 321 323 323 324 323 323 322 322 324 324 323 323 323 324 325 326 327 329 329 332 333 337 338 344 346 346 348 344 352
318 319 318 318 318 318 317 318 319 321 321 321 320 321 323 324 324 323 323 322 323 324 324 324 324 324 324 323 323 324 325 326 326 329 330 332 333 336 339 340 344 344 345 348
324 324 321 319 319 318 319 320 319 323 324 324 324 327 326 327 325 324 323 325 325 324 324 324 323 323 322 322 323 323 323 324 324 325 329 331 332 334 334 337 339 340 341 344
323 323 322 322 322 320 320 321 320 322 322 325 325 325 327 326 326 324 323 323 324 325 323 322 322 321 321 322 322 322 322 323 323 325 326 330 329 332 334 334 335 337 340 342
323 326 324 323 323 323 321 320 323 323 327 329 326 326 326 330 327 325 325 323 324 325 323 322 321 321 320 319 320 320 322 323 323 323 323 325 329 329 333 331 336 337 340 340
324 325 325 323 324 326 323 322 322 324 325 336 334 329 327 328 329 329 325 324 324 323 322 320 319 318 317 318 318 320 320 321 321 322 323 326 328 328 328 329 329 328 330 336
322 324 325 323 322 322 325 326 326 333 331 329 331 331 327 326 325 327 325 324 323 321 319 318 318 318 319 319 319 319 318 319 319 319 319 319 324 324 326 327 326 326 327 328
323 325 326 323 322 322 322 325 327 328 331 332 335 331 325 325 324 324 324 323 322 319 318 318 318 318 317 318 318 318 318 317 317 318 318 319 319 323 323 322 323 323 323 325
319 322 323 326 323 322 325 324 324 328 333 331 329 326 324 327 325 323 324 322 320 318 318 318 318 317 317 316 317 317 317 316 316 316 316 317 317 320 323 323 321 320 321 322
319 322 320 319 318 319 319 320 321 323 325 328 326 324 323 322 323 322 323 320 319 318 318 317 317 318 318 317 317 316 315 314 315 315 315 315 316 316 319 319 319 320 317 320
319 319 318 320 318 318 319 318 318 318 318 319 319 320 318 319 318 319 319 318 318 317 317 317 318 318 317 316 316 316 315 315 315 315 315 314 314 315 315 318 317 318 318 316
317 319 320 321 318 321 322 319 318 317 317 317 319 318 318 318 320 320 318 317 317 316 316 315 317 317 317 316 315 315 315 314 314 314 313 314 314 314 314 314 317 317 318 317
317 316 318 323 319 324 318 318 318 318 317 317 318 318 318 319 318 317 315 314 315 315 316 315 315 315 314 314 314 313 312 312 312 311 310 311 312 312 313 313 313 317 316 317
315 316 321 323 321 320 318 318 320 321 319 320 320 319 317 316 315 314 315 315 315 315 314 314 313 313 313 314 313 312 311 310 311 310 310 309 309 309 308 310 314 313 317 318
316 316 318 321 326 322 323 319 317 315 317 319 318 317 315 314 315 314 315 313 312 313 312 311 310 311 312 313 312 311 310 309 309 308 307 307 306 306 307 307 308 312 312 315
320 319 319 320 323 320 320 318 316 319 322 318 316 315 313 313 313 314 313 312 312 311 311 310 310 312 312 311 310 310 309 309 308 307 306 306 306 305 306 307 306 306 309 312
321 323 321 322 321 323 318 317 319 318 316 314 313 312 312 311 310 310 311 311 311 311 310 309 310 310 308 308 308 309 309 308 307 306 305 305 304 304 304 305 305 305 307 307
322 318 319 318 322 319 317 318 315 314 314 312 312 311 310 310 310 309 310 311 311 310 309 310 308 308 307 306 305 306 305 305 305 305 305 304 303 303 303 303 303 305 305 305
315 316 319 317 317 317 316 316 314 313 313 313 312 311 310 309 309 309 310 309 309 309 308 306 305 305 304 302 302 301 301 301 302 303 302 302 302 302 302 302 302 303 303 304
312 313 314 315 315 315 315 314 312 312 312 311 309 308 308 308 307 307 308 308 306 306 304 302 301 301 300 299 299 299 298 298 299 300 300 301 301 301 301 301 302 302 302 303
313 315 316 316 315 315 313 311 311 310 310 308 308 308 307 307 307 305 304 305 304 302 300 299 298 297 297 297 297 297 298 298 299 299 299 299 299 300 300 301 302 302 301 302
Wind_Speed
13 11 15 18 18 18 20 18 15 15 18 18 16 15 14 15 13 13 14 13 12 12 9 10 7 8 6 2 3 6 11 8 20 18 21 22 22 24 27 31 26 30 30 35
13 15 16 18 18 19 20 20 14 16 14 8 9 12 14 15 18 15 15 13 13 12 11 9 8 10 8 8 5 4 8 9 11 17 19 20 23 26 25 28 32 28 31 32
16 19 20 16 15 15 11 14 13 18 16 15 16 17 16 20 18 17 15 14 14 15 12 9 11 11 14 5 3 7 8 6 10 15 16 21 23 21 23 27 30 35 35 33
15 19 12 9 13 15 15 16 17 17 15 13 12 14 17 21 20 19 16 13 12 14 8 7 5 5 6 4 11 5 3 4 6 11 17 21 19 22 23 25 25 31 38 39
15 16 13 16 16 15 16 16 16 16 13 16 19 13 16 16 14 16 17 17 14 11 13 13 12 13 6 5 5 7 11 3 3 8 10 15 18 20 22 25 27 21 34 41
17 20 13 9 13 14 13 15 15 13 11 14 18 17 17 16 18 18 16 17 12 11 10 6 11 10 5 5 9 9 9 10 7 8 10 14 17 22 21 24 26 24 30 35
16 20 14 12 11 13 15 13 10 12 13 14 20 16 15 16 19 19 11 10 7 10 9 6 7 5 6 4 4 10 12 14 15 13 13 13 15 18 22 24 23 25 29 28
12 13 15 15 16 13 13 12 12 16 14 15 14 16 4 12 6 7 7 14 12 8 7 7 6 5 6 5 5 5 8 13 12 18 16 16 18 18 19 20 24 26 27 35
14 20 15 15 18 15 18 17 16 16 18 16 17 23 12 8 12 11 12 10 9 10 6 2 2 2 3 8 8 8 11 15 10 13 16 12 17 20 20 23 25 25 25 31
8 10 8 13 11 18 16 9 9 9 17 21 15 18 10 10 5 12 8 1 9 9 7 2 5 8 12 13 10 9 10 15 9 12 11 14 11 16 19 19 21 24 26 30
9 7 11 16 15 15 13 13 12 12 13 4 6 6 7 9 12 7 2 3 6 2 4 5 8 11 14 19 15 8 7 13 16 14 12 18 10 10 16 17 18 17 18 24
5 5 10 17 18 16 18 20 17 9 14 12 13 15 12 1 10 12 11 7 5 9 7 8 8 8 14 15 15 11 8 8 13 17 17 20 12 10 12 13 15 19 19 22
3 3 8 11 15 22 14 13 14 12 17 20 13 9 10 12 14 11 13 13 12 11 9 9 8 7 12 12 13 15 15 13 13 12 14 17 17 15 12 14 13 9 12 18
2 7 14 12 16 10 8 11 16 8 5 10 17 20 15 6 6 8 12 16 15 12 10 7 8 7 11 13 15 15 16 18 17 15 18 19 22 17 18 20 21 21 14 15
3 8 15 19 23 23 24 20 18 18 15 11 14 17 14 12 11 17 18 15 13 10 8 7 10 11 12 12 12 14 16 16 20 18 18 20 21 26 21 19 22 25 27 20
3 5 13 18 17 21 23 22 20 21 21 23 22 24 18 14 11 6 4 7 9 7 11 13 15 13 8 10 11 14 15 17 20 20 20 21 23 25 27 23 19 20 25 26
2 3 5 10 15 15 15 17 18 18 20 15 17 17 11 5 2 5 8 11 13 12 11 14 11 10 12 13 12 14 16 17 20 20 24 27 26 27 27 27 22 19 22 29
5 6 3 5 10 8 6 8 7 6 6 6 7 9 6 7 3 8 8 13 13 11 12 13 13 15 20 22 19 16 19 21 23 23 24 25 26 27 29 26 27 22 24 24
11 7 4 3 7 13 14 4 3 5 7 8 7 8 11 13 12 10 9 12 12 13 13 13 19 21 24 24 22 22 18 19 21 22 26 27 28 27 28 33 25 26 22 23
17 14 7 3 4 4 3 6 6 8 7 9 10 7 8 13 11 10 18 16 16 15 17 17 23 26 28 25 23 19 19 21 23 24 25 26 25 28 29 30 27 27 22 23
3 5 12 9 6 8 3 2 2 7 3 8 10 11 12 11 11 15 16 17 16 18 21 25 26 25 25 25 23 20 20 20 23 26 26 29 28 27 31 27 26 30 26 24
6 3 4 6 5 7 9 4 3 2 4 8 9 11 13 15 17 17 18 17 17 17 22 28 27 23 27 23 19 20 21 24 24 26 29 31 26 27 28 30 26 25 23 23
3 2 1 2 3 0 4 11 2 4 7 8 10 12 13 16 18 20 17 18 17 19 24 26 23 22 24 25 26 27 28 30 30 29 26 26 28 28 26 26 27 24 26 23
2 7 4 8 2 2 2 11 8 13 14 15 14 15 17 18 20 21 18 17 17 17 17 25 27 25 27 31 33 32 31 30 32 25 26 26 29 29 29 29 30 28 28 27
8 9 10 13 6 5 7 8 12 11 11 14 17 17 18 19 20 20 18 17 17 18 26 28 29 29 29 31 29 29 28 28 27 26 27 28 24 26 27 28 28 28 30 28
3 4 3 4 7 6 12 15 14 15 15 16 16 19 18 19 19 20 17 17 20 22 31 29 28 30 30 31 30 31 29 28 27 24 24 25 23 22 22 22 23 29 36 35
Wind_Direction
205 219 211 220 227 240 259 242 278 225 243 199 217 249 253 241 214 215 226 217 253 244 231 226 216 187 106 91 291 271 256 228 212 202 194 208 224 224 229 232 231 226 221 213
232 227 238 228 238 228 250 272 270 287 298 276 236 240 249 256 265 227 224 216 219 233 236 228 216 180 178 182 181 220 251 251 231 226 225 226 223 228 231 228 233 230 227 217
231 231 209 248 245 248 262 274 261 261 272 256 253 256 264 261 246 245 236 232 212 228 220 199 220 214 191 180 207 217 215 205 243 246 246 239 248 256 235 226 225 224 227 227
253 245 263 226 257 270 240 245 247 267 268 261 236 254 243 230 230 233 235 218 230 230 226 241 218 237 166 232 257 270 225 208 245 250 257 265 246 244 249 250 234 222 222 222
262 243 253 262 250 247 250 253 259 241 246 266 262 268 271 286 268 223 218 213 209 225 224 213 196 193 144 39 334 270 275 267 243 269 285 289 283 269 259 253 246 251 226 223
276 282 311 294 274 235 266 253 263 271 263 257 253 256 260 259 249 228 226 197 191 219 211 134 83 69 30 350 355 7 2 335 337 321 289 270 276 280 282 282 290 269 258 231
264 267 252 264 271 273 226 241 254 246 239 249 244 243 243 251 247 243 174 170 144 95 77 66 71 57 34 22 330 356 4 349 334 319 311 297 287 274 270 277 280 275 274 270
267 267 253 218 237 253 263 228 241 251 258 267 267 249 302 350 1 110 96 105 106 107 87 62 44 7 338 322 8 297 294 303 321 308 302 309 306 290 283 271 261 264 267 270
283 256 259 269 283 238 247 263 280 293 297 291 285 281 254 258 225 212 185 161 148 126 115 119 261 311 306 302 307 299 304 283 252 290 289 286 297 292 285 283 285 287 280 271
276 309 304 291 283 271 264 253 239 261 265 267 265 268 282 26 54 345 343 240 128 140 147 213 332 339 327 305 288 286 327 342 321 285 294 304 295 310 314 321 305 275 275 275
285 269 272 297 284 264 266 252 250 241 258 254 281 280 21 3 13 9 7 312 83 20 287 339 339 316 301 295 299 280 352 354 334 329 352 343 4 334 327 318 320 318 315 289
20 312 278 278 279 262 249 265 256 245 253 255 264 271 57 358 311 10 356 292 330 308 310 312 292 305 342 348 346 324 341 337 338 331 328 319 322 320 319 318 332 317 310 314
30 238 287 277 249 234 251 305 287 265 244 243 243 246 108 35 340 351 329 308 305 323 308 291 306 322 314 323 330 320 332 314 303 311 315 309 309 307 311 318 326 343 331 314
353 265 258 262 282 295 249 283 295 276 250 267 261 281 278 66 275 306 291 287 285 276 286 320 332 303 303 299 295 303 308 308 310 312 314 307 300 287 273 282 300 305 307 323
258 267 274 272 273 273 277 268 251 249 253 249 269 272 267 271 196 236 234 238 257 283 307 313 294 288 282 256 251 263 273 281 286 289 292 291 295 293 272 262 272 279 286 283
166 276 284 280 269 259 261 263 266 265 259 259 268 272 288 283 280 309 305 278 270 275 270 273 260 255 295 300 262 264 271 281 287 289 286 280 291 286 285 277 258 276 274 269
214 290 295 270 264 266 258 253 256 259 256 254 263 276 274 248 62 275 285 285 289 292 288 292 306 337 321 309 312 302 296 309 298 282 277 281 278 278 277 280 267 250 260 264
212 227 249 273 290 259 281 315 259 285 299 317 276 310 104 269 234 250 297 284 285 322 339 332 321 311 300 290 282 295 298 295 295 300 300 300 298 287 281 275 280 266 246 244
198 230 267 261 273 288 280 205 33 37 311 22 31 34 340 333 322 291 26 4 337 323 315 313 312 308 307 304 293 282 277 278 277 276 281 281 290 298 304 315 264 270 265 230
196 216 235 289 280 282 92 68 3 324 261 31 1 350 322 327 308 303 350 336 323 316 313 313 305 297 287 286 297 290 276 268 268 273 276 283 286 289 291 289 307 305 273 288
196 212 220 237 243 260 126 285 306 243 22 340 319 326 327 318 316 319 317 312 314 308 312 312 302 287 284 283 280 284 289 283 277 276 280 277 271 278 281 282 282 287 302 279
194 221 215 226 238 248 360 305 335 8 310 303 326 330 321 316 310 308 309 312 309 312 311 305 295 300 306 309 320 306 299 298 296 283 280 277 275 270 270 273 274 271 274 279
276 251 305 265 307 299 305 299 301 301 288 333 328 328 319 315 313 313 307 309 317 312 296 294 311 328 325 322 313 302 299 298 289 281 270 272 273 268 260 259 267 265 256 259
283 213 227 232 161 276 200 278 354 341 357 354 344 339 330 318 314 312 318 314 299 300 322 338 332 322 313 306 301 298 299 297 287 276 272 267 264 261 255 257 255 252 257 256
291 265 307 291 328 309 90 339 353 336 333 337 334 328 324 318 314 314 303 314 325 332 332 326 316 306 302 301 299 297 294 290 287 284 279 270 265 264 258 253 252 250 249 246
357 293 341 322 357 335 332 351 336 341 338 331 339 333 321 313 313 330 327 332 337 328 316 310 308 303 301 302 301 296 292 285 280 274 274 271 270 268 268 268 262 253 252 251